Zurück zum Katalog

STARLINK-6368

AktivKommunikationVLEO
NORAD 57234·PAYLOAD·🇺🇸 United States

Gestartet Jul 7, 2023 von Vandenberg Space Force Base

Loading…

Nächste Überflüge (nächste 24 Stunden)

TLE

AktuellSource: CelesTrak SupGP

Epoche: Sep 15, 2026, 02:43 UTC

1 57234C 23094S   26258.11368056 -.00036728  00000+0 -13306-2 0  2582
2 57234  43.0021  40.6243 0001918 269.2914 289.0692 15.27588840    19

Verfolge STARLINK-6368 in Echtzeit mit AllMySat

Download on the App Store